This demonstration page uses our WeatherBlox Daily Observations layout. Learn more.

Left ArrowRight Arrow

Hourly Observations for May 31, 2020

Temp ( °F °C ) Dew Point ( °F °C ) Humidity (%) Winds ( mph kmh ) Pressure ( in mb ) Visibility ( mi km ) Precip ( " mm )
12:56 am 00:56 Clear 60 15.6 54 12.2 80 80 ESE 15 24 30.15 1021 10 16 0.00 0.00
1:56 am 01:56 Mostly Clear 59 15 54 12.2 83 83 ESE 16 26 30.14 1021 10 16 0.00 0.00
2:56 am 02:56 Clear 58 14.4 54 12.2 87 87 ESE 16 26 30.11 1020 10 16 0.00 0.00
3:56 am 03:56 Clear 58 14.4 54 12.2 87 87 ESE 18 30 30.09 1019 10 16 0.00 0.00
4:56 am 04:56 Clear 58 14.4 54 12.2 87 87 SE 15 24 30.09 1019 10 16 0.00 0.00
5:56 am 05:56 Clear 58 14.4 54 12.2 87 87 ESE 16 26 30.08 1019 10 16 0.00 0.00
6:56 am 06:56 Sunny 59 15 55 12.8 87 87 SE 15 24 30.09 1019 10 16 0.00 0.00
7:56 am 07:56 Sunny 61 16.1 56 13.3 84 84 SSE 20 31 30.09 1019 10 16 0.00 0.00
8:56 am 08:56 Sunny 66 18.9 57 13.9 73 73 SSE 21 33 30.09 1019 10 16 0.00 0.00
9:56 am 09:56 Sunny 71 21.7 57 13.9 61 61 SSE 24 39 30.07 1018 10 16 0.00 0.00
10:56 am 10:56 Sunny 76 24.4 57 13.9 52 52 S 25 41 30.04 1017 10 16 0.00 0.00
11:56 am 11:56 Sunny 75 23.9 57 13.9 54 54 S 25 41 30.04 1017 10 16 0.00 0.00
12:56 pm 12:56 Sunny 78 25.6 58 14.4 50 50 S 24 39 30.02 1017 10 16 0.00 0.00
1:56 pm 13:56 Sunny 79 26.1 58 14.4 49 49 SSE 25 41 30.01 1016 10 16 0.00 0.00
2:56 pm 14:56 Sunny 80 26.7 60 15.6 51 51 SSE 23 37 30.00 1016 10 16 0.00 0.00
3:56 pm 15:56 Sunny 81 27.2 59 15 47 47 S 25 41 29.98 1015 10 16 0.00 0.00
4:56 pm 16:56 Sunny 82 27.8 60 15.6 47 47 SSE 24 39 29.96 1015 10 16 0.00 0.00
5:56 pm 17:56 Sunny 84 28.9 60 15.6 44 44 SSE 26 43 29.93 1014 10 16 0.00 0.00
6:56 pm 18:56 Sunny 83 28.3 61 16.1 48 48 SSE 21 33 29.91 1013 10 16 0.00 0.00
7:56 pm 19:56 Sunny 81 27.2 60 15.6 49 49 SSE 18 30 29.91 1013 10 16 0.00 0.00
8:56 pm 20:56 Sunny 79 26.1 61 16.1 54 54 SSE 21 33 29.92 1013 10 16 0.00 0.00
9:56 pm 21:56 Clear 77 25 60 15.6 56 56 SSE 20 31 29.93 1013 10 16 0.00 0.00
10:56 pm 22:56 Clear 75 23.9 60 15.6 60 60 S 20 31 29.93 1013 10 16 0.00 0.00
11:56 pm 23:56 Clear 74 23.3 59 15 60 60 S 21 33 29.92 1013 10 16 0.00 0.00

Powered by AerisWeather